Time,TemperatureF,DewpointF,PressureIn,WindDirection,WindDirectionDegrees,WindSpeedMPH,WindSpeedGustMPH,Humidity,HourlyPrecipIn,Conditions,Clouds,dailyrainin,SoftwareType,DateUTC
2013-05-20 00:00:00,47.0,-99.9,-100.00,North,-999,-999.0,-999.0,-999,0.07,,,0.60,,2013-05-20 06:00:00,
2013-05-20 00:22:00,47.0,-99.9,-100.00,North,-999,-999.0,-999.0,-999,0.07,,,0.60,,2013-05-20 06:22:00,
2013-05-20 00:32:00,47.0,-99.9,-100.00,North,-999,-999.0,-999.0,-999,0.07,,,0.60,,2013-05-20 06:32:00,
2013-05-20 00:42:00,47.0,-99.9,-100.00,North,-999,-999.0,-999.0,-999,0.07,,,0.60,,2013-05-20 06:42:00,
2013-05-20 00:52:00,47.0,-99.9,-100.00,North,-999,-999.0,-999.0,-999,0.07,,,0.60,,2013-05-20 06:52:00,
2013-05-20 01:00:00,46.0,-99.9,-100.00,North,-999,-999.0,-999.0,-999,0.13,,,0.73,,2013-05-20 07:00:00,
2013-05-20 01:22:00,46.0,-99.9,-100.00,North,-999,-999.0,-999.0,-999,0.13,,,0.73,,2013-05-20 07:22:00,
2013-05-20 01:32:00,46.0,-99.9,-100.00,North,-999,-999.0,-999.0,-999,0.13,,,0.73,,2013-05-20 07:32:00,
2013-05-20 01:42:00,46.0,-99.9,-100.00,North,-999,-999.0,-999.0,-999,0.13,,,0.73,,2013-05-20 07:42:00,
2013-05-20 01:52:00,46.0,-99.9,-100.00,North,-999,-999.0,-999.0,-999,0.13,,,0.73,,2013-05-20 07:52:00,
2013-05-20 02:00:00,46.0,-99.9,-100.00,North,-999,-999.0,-999.0,-999,0.10,,,0.83,,2013-05-20 08:00:00,
2013-05-20 02:22:00,46.0,-99.9,-100.00,North,-999,-999.0,-999.0,-999,0.10,,,0.83,,2013-05-20 08:22:00,
2013-05-20 02:32:00,46.0,-99.9,-100.00,North,-999,-999.0,-999.0,-999,0.10,,,0.83,,2013-05-20 08:32:00,
2013-05-20 02:42:00,46.0,-99.9,-100.00,North,-999,-999.0,-999.0,-999,0.10,,,0.83,,2013-05-20 08:42:00,
2013-05-20 02:52:00,46.0,-99.9,-100.00,North,-999,-999.0,-999.0,-999,0.10,,,0.83,,2013-05-20 08:52:00,
2013-05-20 03:00:00,47.0,-99.9,-100.00,North,-999,-999.0,-999.0,-999,0.01,,,0.84,,2013-05-20 09:00:00,
2013-05-20 03:22:00,47.0,-99.9,-100.00,North,-999,-999.0,-999.0,-999,0.01,,,0.84,,2013-05-20 09:22:00,
2013-05-20 03:33:00,47.0,-99.9,-100.00,North,-999,-999.0,-999.0,-999,0.01,,,0.84,,2013-05-20 09:33:00,
2013-05-20 03:43:00,47.0,-99.9,-100.00,North,-999,-999.0,-999.0,-999,0.01,,,0.84,,2013-05-20 09:43:00,
2013-05-20 03:53:00,47.0,-99.9,-100.00,North,-999,-999.0,-999.0,-999,0.01,,,0.84,,2013-05-20 09:53:00,
2013-05-20 04:00:00,46.0,-99.9,-100.00,North,-999,-999.0,-999.0,-999,0.06,,,0.90,,2013-05-20 10:00:00,
2013-05-20 04:22:00,46.0,-99.9,-100.00,North,-999,-999.0,-999.0,-999,0.06,,,0.90,,2013-05-20 10:22:00,
2013-05-20 04:33:00,46.0,-99.9,-100.00,North,-999,-999.0,-999.0,-999,0.06,,,0.90,,2013-05-20 10:33:00,
2013-05-20 04:42:00,46.0,-99.9,-100.00,North,-999,-999.0,-999.0,-999,0.06,,,0.90,,2013-05-20 10:42:00,
2013-05-20 04:53:00,46.0,-99.9,-100.00,North,-999,-999.0,-999.0,-999,0.06,,,0.90,,2013-05-20 10:53:00,
2013-05-20 05:00:00,45.0,-99.9,-100.00,North,-999,-999.0,-999.0,-999,0.03,,,0.93,,2013-05-20 11:00:00,
2013-05-20 05:22:00,45.0,-99.9,-100.00,North,-999,-999.0,-999.0,-999,0.03,,,0.93,,2013-05-20 11:22:00,
2013-05-20 05:32:00,45.0,-99.9,-100.00,North,-999,-999.0,-999.0,-999,0.03,,,0.93,,2013-05-20 11:32:00,
2013-05-20 05:42:00,45.0,-99.9,-100.00,North,-999,-999.0,-999.0,-999,0.03,,,0.93,,2013-05-20 11:42:00,
2013-05-20 05:52:00,45.0,-99.9,-100.00,North,-999,-999.0,-999.0,-999,0.03,,,0.93,,2013-05-20 11:52:00,
2013-05-20 06:00:00,45.0,-99.9,-100.00,North,-999,-999.0,-999.0,-999,0.03,,,0.96,,2013-05-20 12:00:00,
2013-05-20 06:22:00,45.0,-99.9,-100.00,North,-999,-999.0,-999.0,-999,0.03,,,0.96,,2013-05-20 12:22:00,
2013-05-20 06:32:00,45.0,-99.9,-100.00,North,-999,-999.0,-999.0,-999,0.03,,,0.96,,2013-05-20 12:32:00,
2013-05-20 06:42:00,45.0,-99.9,-100.00,North,-999,-999.0,-999.0,-999,0.03,,,0.96,,2013-05-20 12:42:00,
2013-05-20 06:52:00,45.0,-99.9,-100.00,North,-999,-999.0,-999.0,-999,0.03,,,0.96,,2013-05-20 12:52:00,
2013-05-20 07:00:00,44.0,-99.9,-100.00,North,-999,-999.0,-999.0,-999,0.01,,,0.97,,2013-05-20 13:00:00,
2013-05-20 07:22:00,44.0,-99.9,-100.00,North,-999,-999.0,-999.0,-999,0.01,,,0.97,,2013-05-20 13:22:00,
2013-05-20 07:32:00,44.0,-99.9,-100.00,North,-999,-999.0,-999.0,-999,0.01,,,0.97,,2013-05-20 13:32:00,
2013-05-20 07:42:00,44.0,-99.9,-100.00,North,-999,-999.0,-999.0,-999,0.01,,,0.97,,2013-05-20 13:42:00,
2013-05-20 07:52:00,44.0,-99.9,-100.00,North,-999,-999.0,-999.0,-999,0.01,,,0.97,,2013-05-20 13:52:00,
2013-05-20 08:00:00,44.0,-99.9,-100.00,North,-999,-999.0,-999.0,-999,0.09,,,1.06,,2013-05-20 14:00:00,
2013-05-20 08:22:00,44.0,-99.9,-100.00,North,-999,-999.0,-999.0,-999,0.09,,,1.06,,2013-05-20 14:22:00,
2013-05-20 08:32:00,44.0,-99.9,-100.00,North,-999,-999.0,-999.0,-999,0.09,,,1.06,,2013-05-20 14:32:00,
2013-05-20 08:42:00,44.0,-99.9,-100.00,North,-999,-999.0,-999.0,-999,0.09,,,1.06,,2013-05-20 14:42:00,
2013-05-20 08:53:00,44.0,-99.9,-100.00,North,-999,-999.0,-999.0,-999,0.09,,,1.06,,2013-05-20 14:53:00,
2013-05-20 09:00:00,45.0,-99.9,-100.00,North,-999,-999.0,-999.0,-999,0.04,,,1.10,,2013-05-20 15:00:00,
2013-05-20 09:22:00,45.0,-99.9,-100.00,North,-999,-999.0,-999.0,-999,0.04,,,1.10,,2013-05-20 15:22:00,
2013-05-20 09:34:00,45.0,-99.9,-100.00,North,-999,-999.0,-999.0,-999,0.04,,,1.10,,2013-05-20 15:34:00,
2013-05-20 09:43:00,45.0,-99.9,-100.00,North,-999,-999.0,-999.0,-999,0.04,,,1.10,,2013-05-20 15:43:00,
2013-05-20 09:53:00,45.0,-99.9,-100.00,North,-999,-999.0,-999.0,-999,0.04,,,1.10,,2013-05-20 15:53:00,
2013-05-20 10:00:00,45.0,-99.9,-100.00,North,-999,-999.0,-999.0,-999,0.02,,,1.12,,2013-05-20 16:00:00,
2013-05-20 10:23:00,45.0,-99.9,-100.00,North,-999,-999.0,-999.0,-999,0.02,,,1.12,,2013-05-20 16:23:00,
2013-05-20 10:33:00,45.0,-99.9,-100.00,North,-999,-999.0,-999.0,-999,0.02,,,1.12,,2013-05-20 16:33:00,
2013-05-20 10:43:00,45.0,-99.9,-100.00,North,-999,-999.0,-999.0,-999,0.02,,,1.12,,2013-05-20 16:43:00,
2013-05-20 10:53:00,45.0,-99.9,-100.00,North,-999,-999.0,-999.0,-999,0.02,,,1.12,,2013-05-20 16:53:00,
2013-05-20 11:00:00,49.0,-99.9,-100.00,North,-999,-999.0,-999.0,-999,0.00,,,1.12,,2013-05-20 17:00:00,
2013-05-20 11:22:00,49.0,-99.9,-100.00,North,-999,-999.0,-999.0,-999,0.00,,,1.12,,2013-05-20 17:22:00,
2013-05-20 11:33:00,49.0,-99.9,-100.00,North,-999,-999.0,-999.0,-999,0.00,,,1.12,,2013-05-20 17:33:00,
2013-05-20 11:45:00,49.0,-99.9,-100.00,North,-999,-999.0,-999.0,-999,0.00,,,1.12,,2013-05-20 17:45:00,
2013-05-20 11:53:00,49.0,-99.9,-100.00,North,-999,-999.0,-999.0,-999,0.00,,,1.12,,2013-05-20 17:53:00,
2013-05-20 12:00:00,48.0,-99.9,-100.00,North,-999,-999.0,-999.0,-999,0.00,,,1.12,,2013-05-20 18:00:00,
2013-05-20 12:23:00,48.0,-99.9,-100.00,North,-999,-999.0,-999.0,-999,0.00,,,1.12,,2013-05-20 18:23:00,
2013-05-20 12:33:00,48.0,-99.9,-100.00,North,-999,-999.0,-999.0,-999,0.00,,,1.12,,2013-05-20 18:33:00,
2013-05-20 12:42:00,48.0,-99.9,-100.00,North,-999,-999.0,-999.0,-999,0.00,,,1.12,,2013-05-20 18:42:00,
2013-05-20 12:55:00,48.0,-99.9,-100.00,North,-999,-999.0,-999.0,-999,0.00,,,1.12,,2013-05-20 18:55:00,
2013-05-20 13:00:00,50.0,-99.9,-100.00,North,-999,-999.0,-999.0,-999,0.00,,,1.12,,2013-05-20 19:00:00,
2013-05-20 13:22:00,50.0,-99.9,-100.00,North,-999,-999.0,-999.0,-999,0.00,,,1.12,,2013-05-20 19:22:00,
2013-05-20 13:33:00,50.0,-99.9,-100.00,North,-999,-999.0,-999.0,-999,0.00,,,1.12,,2013-05-20 19:33:00,
2013-05-20 13:42:00,50.0,-99.9,-100.00,North,-999,-999.0,-999.0,-999,0.00,,,1.12,,2013-05-20 19:42:00,
2013-05-20 13:53:00,50.0,-99.9,-100.00,North,-999,-999.0,-999.0,-999,0.00,,,1.12,,2013-05-20 19:53:00,
2013-05-20 14:00:00,52.0,-99.9,-100.00,North,-999,-999.0,-999.0,-999,0.00,,,1.12,,2013-05-20 20:00:00,
2013-05-20 14:22:00,52.0,-99.9,-100.00,North,-999,-999.0,-999.0,-999,0.00,,,1.12,,2013-05-20 20:22:00,
2013-05-20 14:33:00,52.0,-99.9,-100.00,North,-999,-999.0,-999.0,-999,0.00,,,1.12,,2013-05-20 20:33:00,
2013-05-20 14:42:00,52.0,-99.9,-100.00,North,-999,-999.0,-999.0,-999,0.00,,,1.12,,2013-05-20 20:42:00,
2013-05-20 14:52:00,52.0,-99.9,-100.00,North,-999,-999.0,-999.0,-999,0.00,,,1.12,,2013-05-20 20:52:00,
2013-05-20 15:00:00,52.0,-99.9,-100.00,North,-999,-999.0,-999.0,-999,0.00,,,1.12,,2013-05-20 21:00:00,
2013-05-20 15:22:00,52.0,-99.9,-100.00,North,-999,-999.0,-999.0,-999,0.00,,,1.12,,2013-05-20 21:22:00,
2013-05-20 15:33:00,52.0,-99.9,-100.00,North,-999,-999.0,-999.0,-999,0.00,,,1.12,,2013-05-20 21:33:00,
2013-05-20 15:43:00,52.0,-99.9,-100.00,North,-999,-999.0,-999.0,-999,0.00,,,1.12,,2013-05-20 21:43:00,
2013-05-20 15:53:00,52.0,-99.9,-100.00,North,-999,-999.0,-999.0,-999,0.00,,,1.12,,2013-05-20 21:53:00,
2013-05-20 16:00:00,53.0,-99.9,-100.00,North,-999,-999.0,-999.0,-999,0.00,,,1.06,,2013-05-20 22:00:00,
2013-05-20 16:23:00,53.0,-99.9,-100.00,North,-999,-999.0,-999.0,-999,0.00,,,1.06,,2013-05-20 22:23:00,
2013-05-20 16:33:00,53.0,-99.9,-100.00,North,-999,-999.0,-999.0,-999,0.00,,,1.06,,2013-05-20 22:33:00,
2013-05-20 16:42:00,53.0,-99.9,-100.00,North,-999,-999.0,-999.0,-999,0.00,,,1.06,,2013-05-20 22:42:00,
2013-05-20 16:53:00,53.0,-99.9,-100.00,North,-999,-999.0,-999.0,-999,0.00,,,1.06,,2013-05-20 22:53:00,
2013-05-20 17:00:00,51.0,-99.9,-100.00,North,-999,-999.0,-999.0,-999,0.00,,,1.04,,2013-05-20 23:00:00,
2013-05-20 17:22:00,51.0,-99.9,-100.00,North,-999,-999.0,-999.0,-999,0.00,,,1.04,,2013-05-20 23:22:00,
2013-05-20 17:32:00,51.0,-99.9,-100.00,North,-999,-999.0,-999.0,-999,0.00,,,1.04,,2013-05-20 23:32:00,
2013-05-20 17:42:00,51.0,-99.9,-100.00,North,-999,-999.0,-999.0,-999,0.00,,,1.04,,2013-05-20 23:42:00,
2013-05-20 17:53:00,51.0,-99.9,-100.00,North,-999,-999.0,-999.0,-999,0.00,,,1.04,,2013-05-20 23:53:00,
2013-05-20 18:00:00,50.0,-99.9,-100.00,North,-999,-999.0,-999.0,-999,0.00,,,0.99,,2013-05-21 00:00:00,
2013-05-20 18:22:00,50.0,-99.9,-100.00,North,-999,-999.0,-999.0,-999,0.00,,,0.99,,2013-05-21 00:22:00,
2013-05-20 18:32:00,50.0,-99.9,-100.00,North,-999,-999.0,-999.0,-999,0.00,,,0.99,,2013-05-21 00:32:00,
2013-05-20 18:42:00,50.0,-99.9,-100.00,North,-999,-999.0,-999.0,-999,0.00,,,0.99,,2013-05-21 00:42:00,
2013-05-20 18:52:00,50.0,-99.9,-100.00,North,-999,-999.0,-999.0,-999,0.00,,,0.99,,2013-05-21 00:52:00,
2013-05-20 19:00:00,49.0,-99.9,-100.00,North,-999,-999.0,-999.0,-999,0.00,,,0.92,,2013-05-21 01:00:00,
2013-05-20 19:22:00,49.0,-99.9,-100.00,North,-999,-999.0,-999.0,-999,0.00,,,0.92,,2013-05-21 01:22:00,
2013-05-20 19:32:00,49.0,-99.9,-100.00,North,-999,-999.0,-999.0,-999,0.00,,,0.92,,2013-05-21 01:32:00,
2013-05-20 19:42:00,49.0,-99.9,-100.00,North,-999,-999.0,-999.0,-999,0.00,,,0.92,,2013-05-21 01:42:00,
2013-05-20 19:53:00,49.0,-99.9,-100.00,North,-999,-999.0,-999.0,-999,0.00,,,0.92,,2013-05-21 01:53:00,
2013-05-20 20:00:00,46.0,-99.9,-100.00,North,-999,-999.0,-999.0,-999,0.00,,,0.89,,2013-05-21 02:00:00,
2013-05-20 20:22:00,46.0,-99.9,-100.00,North,-999,-999.0,-999.0,-999,0.00,,,0.89,,2013-05-21 02:22:00,
2013-05-20 20:32:00,46.0,-99.9,-100.00,North,-999,-999.0,-999.0,-999,0.00,,,0.89,,2013-05-21 02:32:00,
2013-05-20 20:42:00,46.0,-99.9,-100.00,North,-999,-999.0,-999.0,-999,0.00,,,0.89,,2013-05-21 02:42:00,
2013-05-20 20:52:00,46.0,-99.9,-100.00,North,-999,-999.0,-999.0,-999,0.00,,,0.89,,2013-05-21 02:52:00,
2013-05-20 21:00:00,45.0,-99.9,-100.00,North,-999,-999.0,-999.0,-999,0.00,,,0.82,,2013-05-21 03:00:00,
2013-05-20 21:22:00,45.0,-99.9,-100.00,North,-999,-999.0,-999.0,-999,0.00,,,0.82,,2013-05-21 03:22:00,
2013-05-20 21:33:00,45.0,-99.9,-100.00,North,-999,-999.0,-999.0,-999,0.00,,,0.82,,2013-05-21 03:33:00,
2013-05-20 21:43:00,45.0,-99.9,-100.00,North,-999,-999.0,-999.0,-999,0.00,,,0.82,,2013-05-21 03:43:00,
2013-05-20 21:54:00,45.0,-99.9,-100.00,North,-999,-999.0,-999.0,-999,0.00,,,0.82,,2013-05-21 03:54:00,
2013-05-20 22:00:00,45.0,-99.9,-100.00,North,-999,-999.0,-999.0,-999,0.00,,,0.82,,2013-05-21 04:00:00,
2013-05-20 22:33:00,45.0,-99.9,-100.00,North,-999,-999.0,-999.0,-999,0.00,,,0.82,,2013-05-21 04:33:00,
2013-05-20 22:42:00,45.0,-99.9,-100.00,North,-999,-999.0,-999.0,-999,0.00,,,0.82,,2013-05-21 04:42:00,
2013-05-20 22:53:00,45.0,-99.9,-100.00,North,-999,-999.0,-999.0,-999,0.00,,,0.82,,2013-05-21 04:53:00,